Weather reports worldwide

Advertisment
Pershore, United Kingdom (3529): temperature & dewpoint: 29.07.2020 16:00:00 - 04.08.2020 16:00:00 (BST)Pershore, United Kingdom (3529): temperature -20cm & temperature -100cm: 29.07.2020 16:00:00 - 04.08.2020 16:00:00 (BST)Pershore, United Kingdom (3529): wind speed: 29.07.2020 16:00:00 - 04.08.2020 16:00:00 (BST)Pershore, United Kingdom (3529): wind direction: 29.07.2020 16:00:00 - 04.08.2020 16:00:00 (BST)Pershore, United Kingdom (3529): reduced air pressure: 29.07.2020 16:00:00 - 04.08.2020 16:00:00 (BST)Pershore, United Kingdom (3529): visibility: 29.07.2020 16:00:00 - 04.08.2020 16:00:00 (BST)Pershore, United Kingdom (3529): precipitation: 29.07.2020 16:00:00 - 04.08.2020 16:00:00 (BST)
Date & Time tt [°C] td [°C] tt -20cm [°C] tt -100cm [°C] ff [km/h] ff [kn] dd ppp [hPa] vv [km] rr [mm]
04.08.2020 16:00:00 19,5 10,0 - - 26 14 SSW 1013,9 40 -
04.08.2020 15:00:00 18,3 8,6 - - 26 14 SSW 1014,6 40 0,0
04.08.2020 14:00:00 18,2 8,7 - - 24 13 SSW 1015,2 26 0,0
04.08.2020 13:00:00 17,7 9,1 - - 21 11 SSW 1015,8 45 0,0
04.08.2020 12:00:00 18,1 10,8 - - 21 11 SSW 1016,4 28 0,0
04.08.2020 11:00:00 15,4 8,1 - - 15 8 SSW 1016,8 45 0,0
04.08.2020 10:00:00 14,1 9,0 18,4 16,5 11 6 SSW 1017,1 35 0,0
04.08.2020 09:00:00 13,9 8,5 - - 9 5 SSW 1017,3 45 0,0
04.08.2020 08:00:00 12,4 8,4 - - 9 5 S 1017,3 45 0,0
04.08.2020 07:00:00 9,6 8,8 - - 2 1 N 1017,7 7 0,0
04.08.2020 06:00:00 8,0 7,1 - - 2 1 WNW 1017,5 45 0,0
04.08.2020 05:00:00 8,0 7,5 - - 2 1 S 1017,9 40 0,0
04.08.2020 04:00:00 7,4 6,9 - - 2 1 S 1018,2 50 0,0
04.08.2020 03:00:00 6,9 5,8 - - 4 2 SE 1018,4 40 0,0
04.08.2020 02:00:00 7,5 6,0 - - 0 0 N 1018,6 30 0,0
04.08.2020 01:00:00 8,9 6,7 - - 0 0 N 1018,9 50 0,0
04.08.2020 00:00:00 10,7 6,7 - - 2 1 E 1018,8 50 0,0
03.08.2020 23:00:00 12,6 8,1 - - 4 2 N 1018,6 45 0,0
03.08.2020 22:00:00 12,9 7,8 - - 4 2 NNW 1018,2 50 0,0
03.08.2020 21:00:00 14,7 7,1 - - 5 3 NNW 1017,7 50 0,0
03.08.2020 20:00:00 18,1 7,1 - - 5 3 NW 1017,3 45 0,0
03.08.2020 19:00:00 19,9 7,0 - - 11 6 NNW 1016,7 35 0,0
03.08.2020 18:00:00 20,3 6,4 - - 5 3 WNW 1016,7 50 0,0
03.08.2020 17:00:00 21,9 7,5 - - 11 6 NW 1016,9 30 0,0
03.08.2020 16:00:00 20,1 6,5 - - 13 7 NW 1017,0 26 0,0
03.08.2020 15:00:00 20,9 8,0 - - 15 8 NNW 1016,9 50 0,0
03.08.2020 14:00:00 19,7 8,6 - - 11 6 NNW 1017,1 45 0,0
03.08.2020 13:00:00 19,3 9,3 - - 5 3 NW 1017,2 30 0,0
03.08.2020 12:00:00 20,0 8,1 - - 9 5 WNW 1017,1 45 0,0
03.08.2020 11:00:00 18,3 8,2 - - 8 4 NW 1017,2 30 0,0
03.08.2020 10:00:00 17,8 10,4 18,7 16,5 5 3 NW 1017,2 45 0,0
03.08.2020 09:00:00 15,6 10,8 - - 4 2 NW 1017,4 35 0,0
03.08.2020 08:00:00 12,8 10,3 - - 5 3 WSW 1017,2 35 0,0
03.08.2020 07:00:00 10,7 9,8 - - 4 2 SW 1017,1 25 0,0
03.08.2020 06:00:00 8,6 8,4 - - 5 3 SW 1017,0 19 0,0
03.08.2020 05:00:00 7,7 6,8 - - 2 1 SSW 1016,7 50 0,0
03.08.2020 04:00:00 8,8 7,8 - - 2 1 S 1016,7 45 0,0
03.08.2020 03:00:00 9,5 7,7 - - 4 2 SE 1016,8 50 0,0
03.08.2020 02:00:00 10,4 8,2 - - 2 1 N 1017,0 50 0,0
03.08.2020 01:00:00 11,2 8,4 - - 2 1 WSW 1017,1 50 0,0
03.08.2020 00:00:00 12,3 8,1 - - 4 2 NW 1016,8 50 0,0
02.08.2020 23:00:00 14,7 9,1 - - 9 5 NW 1016,5 50 0,0
02.08.2020 22:00:00 15,1 8,6 - - 5 3 NW 1016,2 50 0,0
02.08.2020 21:00:00 17,3 8,3 - - 5 3 WNW 1015,7 45 0,0
02.08.2020 20:00:00 19,2 9,0 - - 11 6 WNW 1015,5 40 0,0
02.08.2020 19:00:00 20,7 9,6 - - 11 6 WNW 1015,2 50 0,0
02.08.2020 18:00:00 21,3 8,9 - - 11 6 W 1015,2 40 0,0
02.08.2020 17:00:00 22,5 10,2 - - 11 6 WNW 1015,4 35 0,0
02.08.2020 16:00:00 21,5 8,3 - - 15 8 W 1015,7 40 0,0
02.08.2020 15:00:00 23,2 10,0 - - 16 9 W 1016,0 40 0,0
02.08.2020 14:00:00 23,4 10,3 - - 15 8 WNW 1016,2 35 0,0
02.08.2020 13:00:00 19,7 9,7 - - 11 6 W 1016,5 35 0,0
02.08.2020 12:00:00 18,3 10,4 - - 11 6 WSW 1017,1 40 0,0
02.08.2020 11:00:00 18,6 11,6 - - 13 7 WSW 1017,3 40 0,0
02.08.2020 10:00:00 18,2 12,1 18,7 16,4 15 8 WSW 1017,4 27 0,0
02.08.2020 09:00:00 15,9 11,4 - - 13 7 SSW 1017,3 45 0,0
02.08.2020 08:00:00 12,9 10,5 - - 9 5 SSW 1017,3 29 0,0
02.08.2020 07:00:00 11,6 9,3 - - 5 3 S 1017,1 40 0,0
02.08.2020 06:00:00 10,9 8,9 - - 4 2 S 1017,1 28 0,0
02.08.2020 05:00:00 11,8 9,1 - - 11 6 S 1016,8 30 0,0
02.08.2020 04:00:00 11,6 9,2 - - 5 3 S 1017,0 35 0,0
02.08.2020 03:00:00 10,0 8,0 - - 4 2 S 1017,0 35 0,0
02.08.2020 02:00:00 12,0 9,1 - - 4 2 SSW 1017,0 40 0,0
02.08.2020 01:00:00 12,7 8,7 - - 5 3 SW 1017,3 45 0,0
02.08.2020 00:00:00 14,0 9,3 - - 8 4 WNW 1017,4 50 0,0
01.08.2020 23:00:00 15,6 9,6 - - 8 4 W 1017,2 45 0,0
01.08.2020 22:00:00 15,6 9,1 - - 5 3 W 1017,0 35 0,0
01.08.2020 21:00:00 16,4 8,7 - - 9 5 WNW 1016,6 40 0,0
01.08.2020 20:00:00 18,3 8,5 - - 15 8 WNW 1016,4 50 0,0
01.08.2020 19:00:00 19,7 10,4 - - 15 8 WNW 1016,1 50 0,0
01.08.2020 18:00:00 21,4 11,3 - - 15 8 WNW 1015,8 50 0,0
01.08.2020 17:00:00 22,4 12,5 - - 15 8 WNW 1015,6 45 0,0
01.08.2020 16:00:00 22,1 13,2 - - 15 8 W 1015,5 35 0,0
01.08.2020 15:00:00 21,5 12,5 - - 13 7 WSW 1015,4 45 0,0
01.08.2020 14:00:00 23,2 11,6 - - 18 10 WSW 1015,0 45 0,0
01.08.2020 13:00:00 21,6 13,4 - - 11 6 W 1015,2 45 0,0
01.08.2020 12:00:00 20,5 13,5 - - 16 9 SW 1015,5 50 0,0
01.08.2020 11:00:00 20,0 13,1 - - 9 5 WSW 1015,2 50 0,0
01.08.2020 10:00:00 20,1 13,9 19,2 16,2 11 6 WSW 1015,0 45 0,0
01.08.2020 09:00:00 18,9 15,2 - - 15 8 SW 1014,6 26 0,0
01.08.2020 08:00:00 17,1 14,9 - - 15 8 SW 1014,4 25 0,0
01.08.2020 07:00:00 15,6 14,5 - - 9 5 S 1014,3 21 0,0
01.08.2020 06:00:00 12,7 11,1 - - 5 3 SSE 1014,4 13 0,0
01.08.2020 05:00:00 13,8 12,6 - - 4 2 SSW 1014,3 22 0,0
01.08.2020 04:00:00 14,3 12,8 - - 8 4 SSW 1014,0 40 0,0
01.08.2020 03:00:00 14,7 12,6 - - 5 3 S 1013,9 40 0,0
01.08.2020 02:00:00 15,8 12,4 - - 5 3 W 1013,9 40 0,0
01.08.2020 01:00:00 17,1 12,9 - - 13 7 W 1013,3 45 0,0
01.08.2020 00:00:00 19,2 14,0 - - 13 7 W 1012,5 50 0,0
31.07.2020 23:00:00 20,4 16,9 - - 13 7 SW 1011,8 35 0,0
31.07.2020 22:00:00 21,6 16,9 - - 13 7 WSW 1011,2 45 0,0
31.07.2020 21:00:00 22,2 16,3 - - 15 8 WSW 1011,1 50 0,0
31.07.2020 20:00:00 24,0 15,0 - - 11 6 WSW 1010,3 50 0,0
31.07.2020 19:00:00 25,7 13,9 - - 18 10 SW 1009,5 35 0,0
31.07.2020 18:00:00 27,6 16,4 - - 16 9 SW 1009,2 30 0,0
31.07.2020 17:00:00 30,7 16,3 - - 21 11 WSW 1008,0 35 0,0
31.07.2020 16:00:00 32,3 15,3 - - 15 8 WSW 1007,9 40 0,0
31.07.2020 15:00:00 33,9 13,6 - - 22 12 S 1007,9 30 0,0
31.07.2020 14:00:00 33,8 13,7 - - 22 12 S 1008,3 17 0,0
31.07.2020 13:00:00 33,1 14,2 - - 21 11 SSE 1008,8 20 0,0
31.07.2020 12:00:00 31,0 13,1 - - 21 11 SE 1009,1 20 0,0
31.07.2020 11:00:00 29,1 12,3 - - 18 10 SE 1010,1 50 0,0
31.07.2020 10:00:00 27,2 11,3 18,7 16,2 21 11 SSE 1010,5 28 0,0
31.07.2020 09:00:00 24,7 12,7 - - 5 3 ENE 1010,8 35 0,0
31.07.2020 08:00:00 21,5 12,9 - - 4 2 NE 1011,3 30 0,0
31.07.2020 07:00:00 15,5 12,0 - - 2 1 E 1011,8 22 0,0
31.07.2020 06:00:00 12,8 10,1 - - 5 3 NNE 1012,3 45 0,0
31.07.2020 05:00:00 11,9 9,7 - - 5 3 NNW 1012,6 50 0,0
31.07.2020 04:00:00 12,2 9,3 - - 5 3 NE 1013,0 45 0,0
31.07.2020 03:00:00 15,2 10,0 - - 11 6 ENE 1013,7 50 0,0
31.07.2020 02:00:00 14,6 9,7 - - 2 1 NNE 1014,5 45 0,0
31.07.2020 01:00:00 15,2 9,6 - - 4 2 NNE 1014,9 50 0,0
31.07.2020 00:00:00 16,6 9,3 - - 8 4 E 1014,9 45 0,0
30.07.2020 23:00:00 17,6 9,4 - - 11 6 SE 1014,9 50 0,0
30.07.2020 22:00:00 19,8 9,9 - - 9 5 SSE 1014,9 50 0,0
30.07.2020 21:00:00 21,4 11,3 - - 8 4 SSE 1014,8 50 0,0
30.07.2020 20:00:00 25,9 10,3 - - 13 7 S 1014,9 35 0,0
30.07.2020 19:00:00 26,9 9,5 - - 15 8 S 1015,0 29 0,0
30.07.2020 18:00:00 27,6 10,5 - - 15 8 S 1015,4 40 0,0
30.07.2020 17:00:00 27,7 10,0 - - 15 8 SSE 1015,9 35 0,0
30.07.2020 16:00:00 26,7 9,6 - - 15 8 S 1016,5 35 0,0
30.07.2020 15:00:00 26,7 8,8 - - 13 7 SSE 1017,0 45 0,0
30.07.2020 14:00:00 25,4 9,5 - - 13 7 SSE 1017,4 19 0,0
30.07.2020 13:00:00 24,1 10,7 - - 15 8 SSW 1017,9 29 0,0
30.07.2020 12:00:00 23,3 12,4 - - 9 5 SW 1018,4 40 0,0
30.07.2020 11:00:00 21,4 12,1 - - 11 6 S 1018,8 29 0,0
30.07.2020 10:00:00 19,1 11,5 17,9 16,2 13 7 S 1019,0 30 0,0
30.07.2020 09:00:00 18,0 12,2 - - 5 3 SSW 1019,2 28 0,0
30.07.2020 08:00:00 16,7 12,0 - - 5 3 SSW 1019,0 30 0,0
30.07.2020 07:00:00 13,9 11,5 - - 5 3 SSE 1018,7 35 0,0
30.07.2020 06:00:00 13,4 11,2 - - 4 2 SE 1018,9 40 0,0
30.07.2020 05:00:00 14,9 11,1 - - 5 3 S 1018,9 40 0,0
30.07.2020 04:00:00 15,3 11,5 - - 5 3 SSE 1019,1 35 0,0
30.07.2020 03:00:00 16,0 12,3 - - 8 4 SSW 1019,3 40 0,0
30.07.2020 02:00:00 15,4 12,1 - - 4 2 S 1019,5 45 0,0
30.07.2020 01:00:00 15,6 11,7 - - 2 1 SSE 1019,9 35 0,0
30.07.2020 00:00:00 16,0 10,9 - - 4 2 W 1019,7 40 0,0
29.07.2020 23:00:00 16,8 10,8 - - 4 2 WSW 1019,9 45 0,0
29.07.2020 22:00:00 17,5 11,1 - - 4 2 WSW 1019,8 45 0,0
29.07.2020 21:00:00 18,5 10,8 - - 5 3 SSW 1019,6 35 0,0
29.07.2020 20:00:00 19,0 10,4 - - 5 3 WSW 1019,5 30 0,0
29.07.2020 19:00:00 19,7 9,9 - - 11 6 WSW 1019,3 30 0,0
29.07.2020 18:00:00 20,1 9,7 - - 13 7 WSW 1019,6 40 0,0
29.07.2020 17:00:00 20,4 9,8 - - 11 6 W 1019,7 30 0,0
29.07.2020 16:00:00 20,3 9,8 - - 9 5 W 1019,9 45 0,0

tt = temperature
td = dewpoint
tt -20cm = temperature -20cm
tt -100cm = temperature -100cm
ff = wind speed
dd = wind direction
ppp = reduced air pressure
vv = visibility
rr = precipitation

Next stations